Powrót do katalogu

STARLINK-36310

AktywnyŁącznośćVLEO
NORAD 68244·PAYLOAD·🇺🇸 United States

Wystrzelony Mar 17, 2026 z Vandenberg Space Force Base

Loading…

Następne Przeloty (najbliższe 24 godziny)

TLE

ŚwieżeSource: CelesTrak SupGP

Epoka: Sep 15, 2026, 03:09 UTC

1 68244C 26054N   26258.13173611  .00039186  00000+0  11578-2 0  2585
2 68244  53.1575 126.8930 0001265  82.6781  60.3672 15.34370748    14

Śledź STARLINK-36310 w czasie rzeczywistym z AllMySat

Download on the App Store